Find Starlink 5325

NORAD ID: 55292 Int'l Des: 2023-010 Owner: SPXS Country: US Constellation: starlink operational
LEOCIRCULAR

Live Position

Loading 3D Globe...

About Starlink 5325

Description loading...

Upcoming Passes

Passes for default location (London). Set your location on the main map for personalized predictions.

Altitude History

Loading altitude history...

Two-Line Element Set

1 55292U 23010Z 26105.76469847 -.00000363 00000-0 -22640-4 0 9996
2 55292 69.9978 290.9340 0002838 272.9136 87.1698 14.98333857178827
Epoch: Apr 15, 2026 • Age: 17 hours

Current Status

Altitude 587.9 km
Velocity 7.57 km/s
Sub-Earth Point -46.31°S, 115.81°E
Launch Date Jan 19, 2023
Age 3.2 years
Type internet

Technical Details

Classification Payload
Mass 305.00 kg
Dry Mass 290.00 kg
Total Mass 305.00 kg
Length 0.20 m
Diameter 2.80 m
Span 9.00 m
Shape Box + pan
Manufacturer SPXS
Bus Type Starlink
Phase Status In Orbit
Owner/State SPXS/US

Most Searched